Weather History for KELD - March, 2014

Change the Weather History Date:

Thursday, March 6, 2014

  Actual Average Record
Temperature  
Mean Temperature 40 °F 53 °F  
Max Temperature 50 °F 65 °F 85 °F (1956)
Min Temperature 29 °F 41 °F 19 °F (2015)
Degree Days  
Heating Degree Days 25 12  
Month to date heating degree days 142 78  
Since 1 July heating degree days 2749 2306  
Cooling Degree Days 0 0  
Month to date cooling degree days 0 0  
Year to date cooling degree days 0 6  
Moisture  
Dew Point 34 °F    
Average Humidity 83    
Maximum Humidity 100    
Minimum Humidity 66    
Precipitation  
Precipitation 0.01 in 0.17 in 1.42 in (1946)
Month to date precipitation 1.20 0.99  
Year to date precipitation 5.78 10.08  
Snow  
Snow 0.00 in - - ()
Month to date snowfall T  
Since 1 July snowfall 1.1  
Snow Depth 0.00 in    
Sea Level Pressure  
Sea Level Pressure 30.13 in    
Wind  
Wind Speed 7 mph (NNW)    
Max Wind Speed 13 mph    
Max Gust Speed 17 mph    
Visibility 6 miles    
Events Rain    
T = Trace of Precipitation, MM = Missing Value Source: NWS Daily Summary

Daily Weather History Graph

Daily Weather History Graph

Search for Another Location

Airport or City:

Trip Planner

Search our weather history database for the weather conditions in past years. The results will help you decide how hot, cold, wet, or windy it might be!

Date:

Astronomy

Mar. 06, 2014 Rise Set
Actual Time 6:33 AM CST 6:12 PM CST
Civil Twilight 6:08 AM CST 6:37 PM CST
Nautical Twilight 5:39 AM CST 7:05 PM CST
Astronomical Twilight 5:11 AM CST 7:34 PM CST
Moon 9:58 AM CST (3/6) No Moon Set
Length of Visible Light 12h 28m
Length of Day
11h 39m
Waxing Crescent, 32% of the Moon is Illuminated
Mar 6
Waxing Crescent
Mar 8
First Quarter
Mar 16
Full
Mar 23
Last Quarter
Mar 30
New

Hourly Weather History & Observations

Time (CST) Temp. Windchill Dew Point Humidity Pressure Visibility Wind Dir Wind Speed Gust Speed Precip Events Conditions
12:23 AM 36.0 °F 30.3 °F 35.1 °F 97% 30.15 in 5.0 mi NNW 6.9 mph - 0.01 in Rain Light Rain
12:53 AM 36.0 °F 30.3 °F 35.1 °F 97% 30.15 in 5.0 mi North 6.9 mph - 0.01 in Rain Light Rain
1:11 AM 35.1 °F 28.6 °F 34.0 °F 96% 30.14 in 6.0 mi North 8.1 mph - 0.00 in Rain Light Rain
1:19 AM 35.1 °F 26.9 °F 34.0 °F 96% 30.14 in 6.0 mi North 11.5 mph - 0.00 in   Overcast
1:34 AM 35.1 °F 29.3 °F 34.0 °F 96% 30.13 in 6.0 mi NNW 6.9 mph - 0.00 in   Overcast
1:48 AM 35.6 °F 28.6 °F 33.8 °F 93% 30.14 in 6.0 mi NNW 9.2 mph - 0.00 in   Overcast
1:53 AM 35.1 °F 28.6 °F 34.0 °F 96% 30.14 in 6.0 mi NNW 8.1 mph - 0.00 in   Overcast
2:53 AM 35.1 °F 28.6 °F 34.0 °F 96% 30.13 in 4.0 mi NNW 8.1 mph - N/A   Overcast
3:51 AM 35.6 °F 29.2 °F 33.8 °F 93% 30.11 in 4.0 mi NNW 8.1 mph - N/A   Overcast
3:53 AM 35.1 °F 29.3 °F 34.0 °F 96% 30.12 in 3.0 mi NNW 6.9 mph - N/A   Overcast
4:01 AM 35.1 °F 27.4 °F 34.0 °F 96% 30.11 in 3.0 mi NNW 10.4 mph - N/A   Overcast
4:53 AM 35.1 °F 28.6 °F 34.0 °F 96% 30.12 in 4.0 mi North 8.1 mph - N/A   Overcast
5:53 AM 34.0 °F 26.6 °F 34.0 °F 100% 30.13 in 4.0 mi North 9.2 mph - N/A   Overcast
6:53 AM 34.0 °F 28.0 °F 33.1 °F 96% 30.14 in 7.0 mi North 6.9 mph - N/A   Overcast
7:53 AM 35.1 °F 29.3 °F 34.0 °F 96% 30.16 in 4.0 mi North 6.9 mph - N/A   Overcast
8:21 AM 35.1 °F 28.6 °F 34.0 °F 96% 30.15 in 2.5 mi NNW 8.1 mph - N/A   Overcast
8:28 AM 35.1 °F 27.9 °F 34.0 °F 96% 30.16 in 3.0 mi North 9.2 mph - N/A   Overcast
8:53 AM 35.1 °F 27.9 °F 34.0 °F 96% 30.17 in 8.0 mi NNW 9.2 mph - N/A   Overcast
9:24 AM 36.0 °F 28.0 °F 34.0 °F 93% 30.17 in 5.0 mi NNW 11.5 mph - N/A   Overcast
9:35 AM 36.0 °F 30.3 °F 35.1 °F 97% 30.17 in 1.8 mi NNW 6.9 mph - N/A   Overcast
9:53 AM 36.0 °F 28.5 °F 35.1 °F 97% 30.18 in 2.0 mi NNW 10.4 mph - N/A   Overcast
10:05 AM 37.0 °F 31.6 °F 35.1 °F 93% 30.18 in 5.0 mi Variable 6.9 mph - N/A   Overcast
10:53 AM 37.0 °F 29.3 °F 34.0 °F 89% 30.18 in 10.0 mi NNW 11.5 mph - N/A   Overcast
11:53 AM 37.9 °F 30.5 °F 35.1 °F 89% 30.18 in 10.0 mi NNW 11.5 mph - N/A   Overcast
12:33 PM 39.0 °F 31.8 °F 35.1 °F 86% 30.15 in 10.0 mi NNW 11.5 mph - N/A   Overcast
12:53 PM 39.9 °F 33.4 °F 35.1 °F 83% 30.14 in 10.0 mi NNW 10.4 mph - N/A   Overcast
1:53 PM 42.1 °F 37.7 °F 36.0 °F 79% 30.12 in 9.0 mi NNW 6.9 mph - N/A   Overcast
2:28 PM 44.1 °F 38.6 °F 36.0 °F 73% 30.11 in 10.0 mi NNW 10.4 mph - N/A   Overcast
2:53 PM 46.0 °F 41.4 °F 37.0 °F 71% 30.11 in 10.0 mi NNW 9.2 mph - N/A   Overcast
3:01 PM 46.0 °F 41.9 °F 37.0 °F 71% 30.10 in 10.0 mi NNW 8.1 mph - N/A   Overcast
3:53 PM 48.0 °F - 37.9 °F 68% 30.10 in 10.0 mi NW 6.9 mph - N/A   Clear
4:53 PM 48.0 °F - 39.0 °F 71% 30.09 in 10.0 mi NE 8.1 mph - N/A   Clear
5:53 PM 44.1 °F 39.5 °F 37.9 °F 79% 30.10 in 9.0 mi NE 8.1 mph - N/A   Clear
6:53 PM 39.0 °F 35.7 °F 36.0 °F 89% 30.09 in 6.0 mi ENE 4.6 mph - N/A   Clear
7:53 PM 36.0 °F - 35.1 °F 97% 30.10 in 4.0 mi Calm Calm - N/A   Clear
8:53 PM 34.0 °F - 33.1 °F 96% 30.10 in 3.0 mi Calm Calm - N/A   Clear
9:53 PM 32.0 °F - 30.9 °F 96% 30.09 in 5.0 mi Calm Calm - N/A   Clear
10:53 PM 30.9 °F - 30.0 °F 96% 30.09 in 4.0 mi Calm Calm - N/A   Clear
11:37 PM 30.0 °F - 28.9 °F 96% 30.11 in 3.0 mi Calm Calm - N/A   Partly Cloudy
11:53 PM 30.0 °F - 28.0 °F 92% 30.11 in 3.0 mi Calm Calm - N/A   Clear